Marion, VA

6:31 AM EST on December 18, 2017 (GMT -0500)
Mountain Empire

Weather History for KMKJ - October, 2012

Change the Weather History Date:

Tuesday, October 16, 2012

  Actual Average (KBLF) Record (KBLF)
Temperature  
Mean Temperature 53 °F -  
Max Temperature 64 °F 64 °F 81 °F (1989)
Min Temperature 42 °F 45 °F 29 °F (1986)
Degree Days  
Heating Degree Days 12    
Growing Degree Days 3 (Base 50)    
Moisture  
Dew Point 38 °F    
Average Humidity 63    
Maximum Humidity 91    
Minimum Humidity 31    
Precipitation  
Precipitation 0.03 in - - ()
Sea Level Pressure  
Sea Level Pressure 29.98 in    
Wind  
Wind Speed 7 mph (West)    
Max Wind Speed 17 mph    
Max Gust Speed 22 mph    
Visibility 10 miles    
Events Thunderstorm    
Averages and records for this station are not official NWS values.
T = Trace of Precipitation, MM = Missing Value Source: NWS Daily Summary

Daily Weather History Graph

Daily Weather History Graph

Search for Another Location

Airport or City:

Trip Planner

Search our weather history database for the weather conditions in past years. The results will help you decide how hot, cold, wet, or windy it might be!

Date:

Astronomy

Oct. 16, 2012 Rise Set
Actual Time 7:34 AM EDT 6:46 PM EDT
Civil Twilight 7:08 AM EDT 7:12 PM EDT
Nautical Twilight 6:38 AM EDT 7:43 PM EDT
Astronomical Twilight 6:07 AM EDT 8:13 PM EDT
Moon 8:52 AM EDT (10/16) 7:33 PM EDT (10/16)
Length of Visible Light 12h 04m
Length of Day
11h 12m
New Moon, 2% of the Moon is Illuminated
Oct 16
New Moon
Oct 21
First Quarter
Oct 29
Full
Nov 6
Last Quarter
Nov 13
New

Hourly Weather History & Observations

Time (EDT) Temp. Windchill Dew Point Humidity Pressure Visibility Wind Dir Wind Speed Gust Speed Precip Events Conditions
12:15 AM 50.4 °F - 39.7 °F 67% 29.96 in 10.0 mi WNW 10.4 mph 17.3 mph N/A   Scattered Clouds
12:35 AM 50.0 °F - 39.9 °F 68% 29.96 in 10.0 mi WSW 8.1 mph 16.1 mph N/A   Scattered Clouds
12:55 AM 50.9 °F - 39.9 °F 66% 29.96 in 10.0 mi WSW 5.8 mph - N/A   Overcast
1:15 AM 50.7 °F - 39.6 °F 66% 29.97 in 10.0 mi West 6.9 mph - N/A   Overcast
1:35 AM 50.2 °F - 39.6 °F 67% 29.98 in 10.0 mi West 8.1 mph - N/A   Mostly Cloudy
1:55 AM 48.0 °F - 40.1 °F 74% 29.98 in 10.0 mi West 6.9 mph - N/A   Scattered Clouds
2:15 AM 46.9 °F - 40.1 °F 77% 29.98 in 10.0 mi WSW 3.5 mph - N/A   Scattered Clouds
2:35 AM 47.3 °F - 40.3 °F 77% 29.98 in 10.0 mi West 3.5 mph - N/A   Clear
2:55 AM 46.6 °F - 39.9 °F 78% 29.99 in 10.0 mi West 5.8 mph - N/A   Scattered Clouds
3:15 AM 46.4 °F 43.5 °F 40.3 °F 79% 29.99 in 10.0 mi West 5.8 mph - N/A   Mostly Cloudy
3:35 AM 46.4 °F 42.9 °F 40.5 °F 80% 29.98 in 10.0 mi West 6.9 mph - N/A   Overcast
3:55 AM 45.7 °F 42.7 °F 40.3 °F 81% 29.98 in 10.0 mi West 5.8 mph - N/A   Mostly Cloudy
4:15 AM 44.8 °F 41.6 °F 39.9 °F 83% 29.99 in 10.0 mi West 5.8 mph - N/A   Scattered Clouds
4:35 AM 43.9 °F 39.9 °F 40.1 °F 87% 30.00 in 10.0 mi West 6.9 mph - N/A   Clear
4:55 AM 43.5 °F 40.1 °F 39.9 °F 87% 30.00 in 10.0 mi WSW 5.8 mph - N/A   Clear
5:15 AM 43.7 °F - 40.3 °F 88% 30.01 in 10.0 mi Calm Calm - N/A   Clear
5:35 AM 43.9 °F - 40.3 °F 87% 30.01 in 10.0 mi Calm Calm - N/A   Clear
5:55 AM 43.2 °F - 40.1 °F 89% 30.02 in 10.0 mi Calm Calm - N/A   Clear
6:15 AM 42.6 °F 38.4 °F 39.9 °F 90% 30.02 in 10.0 mi West 6.9 mph - N/A   Clear
6:35 AM 42.8 °F 37.0 °F 40.3 °F 91% 30.02 in 10.0 mi WSW 10.4 mph - N/A   Clear
6:55 AM 43.2 °F 36.6 °F 40.5 °F 90% 30.01 in 10.0 mi WSW 12.7 mph - N/A   Clear
7:15 AM 43.0 °F 36.0 °F 40.3 °F 90% 30.00 in 10.0 mi West 13.8 mph - N/A   Clear
7:35 AM 46.0 °F 39.0 °F 39.4 °F 78% 30.00 in 10.0 mi West 17.3 mph 21.9 mph N/A   Clear
8:15 AM 45.9 °F 40.0 °F 39.7 °F 79% 30.00 in 10.0 mi WSW 12.7 mph - N/A   Clear
8:35 AM 46.2 °F 40.8 °F 40.1 °F 79% 30.01 in 10.0 mi West 11.5 mph - N/A   Clear
8:55 AM 47.5 °F - 40.5 °F 77% 30.02 in 10.0 mi West 11.5 mph - N/A   Clear
9:15 AM 49.3 °F - 39.9 °F 70% 30.02 in 10.0 mi West 15.0 mph 19.6 mph N/A   Clear
9:35 AM 50.4 °F - 40.6 °F 69% 30.03 in 10.0 mi WSW 12.7 mph 17.3 mph N/A   Clear
9:55 AM 51.8 °F - 40.6 °F 66% 30.02 in 10.0 mi West 13.8 mph 18.4 mph N/A   Clear
10:15 AM 52.7 °F - 39.0 °F 60% 30.02 in 10.0 mi West 11.5 mph 20.7 mph N/A   Clear
10:35 AM 53.8 °F - 38.5 °F 56% 30.02 in 10.0 mi West 15.0 mph 21.9 mph N/A   Clear
10:55 AM 55.2 °F - 37.9 °F 52% 30.02 in 10.0 mi West 10.4 mph 17.3 mph N/A   Clear
11:15 AM 55.8 °F - 38.1 °F 52% 30.02 in 10.0 mi WSW 16.1 mph 19.6 mph N/A   Clear
11:35 AM 57.2 °F - 37.9 °F 49% 30.01 in 10.0 mi West 10.4 mph - N/A   Clear
11:55 AM 58.3 °F - 37.6 °F 46% 30.02 in 10.0 mi WSW 10.4 mph - N/A   Clear
12:15 PM 59.2 °F - 37.9 °F 45% 30.02 in 10.0 mi West 8.1 mph 17.3 mph N/A   Clear
12:35 PM 60.1 °F - 37.6 °F 43% 30.01 in 10.0 mi SW 8.1 mph - N/A   Clear
12:55 PM 60.8 °F - 37.9 °F 43% 30.01 in 10.0 mi WNW 11.5 mph - N/A   Clear
1:15 PM 61.7 °F - 37.8 °F 41% 30.00 in 10.0 mi West 10.4 mph - N/A   Clear
1:35 PM 62.1 °F - 37.9 °F 41% 29.99 in 10.0 mi NW 10.4 mph 16.1 mph N/A   Clear
1:55 PM 61.7 °F - 36.1 °F 39% 29.98 in 10.0 mi WNW 8.1 mph - N/A   Clear
2:15 PM 62.6 °F - 37.8 °F 40% 29.98 in 10.0 mi West 9.2 mph - N/A Thunderstorm Thunderstorm
2:35 PM - - - N/A% - - North - - N/A   Unknown
2:55 PM 63.9 °F - 36.9 °F 37% 29.96 in 10.0 mi WSW 4.6 mph - 0.03 in   Unknown
3:15 PM 63.7 °F - 36.0 °F 36% 29.96 in 10.0 mi WNW 9.2 mph 18.4 mph N/A   Unknown
3:35 PM 63.9 °F - 34.7 °F 34% 29.95 in 10.0 mi WNW 8.1 mph - N/A   Unknown
3:55 PM 64.4 °F - 35.6 °F 34% 29.95 in 10.0 mi WNW 5.8 mph - N/A   Clear
4:15 PM 64.2 °F - 34.9 °F 34% 29.94 in 10.0 mi West 8.1 mph - N/A   Clear
4:35 PM 63.9 °F - 33.8 °F 33% 29.94 in 10.0 mi WNW 9.2 mph - N/A   Clear
4:55 PM 64.0 °F - 34.7 °F 34% 29.94 in 10.0 mi West 6.9 mph - N/A   Clear
5:15 PM 63.9 °F - 32.7 °F 31% 29.93 in 10.0 mi NNW 6.9 mph - N/A   Clear
5:35 PM 62.6 °F - 32.0 °F 32% 29.94 in 10.0 mi WNW 8.1 mph - N/A   Clear
5:55 PM 62.2 °F - 32.7 °F 33% 29.94 in 10.0 mi West 6.9 mph - N/A   Clear
6:15 PM 61.2 °F - 32.5 °F 34% 29.95 in 10.0 mi West 4.6 mph - N/A   Clear
6:35 PM 59.0 °F - 32.2 °F 36% 29.95 in 10.0 mi West 4.6 mph - N/A   Clear
6:55 PM 57.7 °F - 34.5 °F 42% 29.95 in 10.0 mi Calm Calm - N/A   Clear
7:15 PM 55.8 °F - 36.0 °F 47% 29.94 in 10.0 mi Calm Calm - N/A   Clear
7:35 PM 53.1 °F - 38.5 °F 58% 29.95 in 10.0 mi Calm Calm - N/A   Clear
7:55 PM 51.4 °F - 39.4 °F 63% 29.95 in 10.0 mi Calm Calm - N/A   Clear
8:15 PM 49.8 °F - 39.9 °F 69% 29.96 in 10.0 mi Calm Calm - N/A   Clear
8:35 PM 48.6 °F - 40.1 °F 73% 29.96 in 10.0 mi Calm Calm - N/A   Clear
8:55 PM 48.6 °F - 39.6 °F 71% 29.96 in 10.0 mi Calm Calm - N/A   Clear
9:15 PM 47.3 °F - 40.3 °F 77% 29.96 in 10.0 mi Calm Calm - N/A   Clear
9:35 PM 46.6 °F - 40.1 °F 78% 29.96 in 10.0 mi Calm Calm - N/A   Clear
9:55 PM 46.0 °F - 39.7 °F 79% 29.96 in 10.0 mi Calm Calm - N/A   Clear
10:15 PM 45.3 °F - 40.1 °F 82% 29.97 in 10.0 mi Calm Calm - N/A   Clear
10:35 PM 45.3 °F - 39.7 °F 81% 29.97 in 10.0 mi Calm Calm - N/A   Clear
10:55 PM 45.1 °F - 39.7 °F 81% 29.97 in 10.0 mi Calm Calm - N/A   Clear
11:35 PM 44.1 °F - 39.9 °F 85% 29.98 in 10.0 mi Calm Calm - N/A   Clear
11:55 PM 43.0 °F - 40.5 °F 91% 29.97 in 10.0 mi Calm Calm - N/A   Clear